Weather History for Hettinger, ND

Change the Weather History Date:

Wednesday, February 27, 2013

  Actual Average Record
Temperature  
Mean Temperature 26 °F -  
Max Temperature 30 °F 35 °F 46 °F (2004)
Min Temperature 22 °F 13 °F -20 °F (2001)
Degree Days  
Heating Degree Days 39 41  
Month to date heating degree days 1033 1199  
Since 1 July heating degree days 5921 6275  
Moisture  
Dew Point 21 °F    
Average Humidity 78    
Maximum Humidity 85    
Minimum Humidity 75    
Precipitation  
Precipitation 0.00 in 0.01 in 0.04 in (2007)
Month to date precipitation 0.10 0.41  
Year to date precipitation 0.13 0.72  
Sea Level Pressure  
Sea Level Pressure 30.25 in    
Wind  
Wind Speed 11 mph (NNW)    
Max Wind Speed 23 mph    
Max Gust Speed 30 mph    
Visibility 10 miles    
Events      
T = Trace of Precipitation, MM = Missing Value Source: NWS Daily Summary

Daily Weather History Graph

Daily Weather History Graph

Search for Another Location

Airport:

Trip Planner

Search our weather history database for the weather conditions in past years. The results will help you decide how hot, cold, wet, or windy it might be!

Date:

Astronomy

Feb. 27, 2013 Rise Set
Actual Time 6:32 AM MST 5:34 PM MST
Civil Twilight 6:02 AM MST 6:04 PM MST
Nautical Twilight 5:27 AM MST 6:39 PM MST
Astronomical Twilight 4:53 AM MST 7:14 PM MST
Moon 8:09 PM MST (2/27) 6:59 AM MST (2/27)
Length of Visible Light 12h 02m
Length of Day
11h 02m
Waning Gibbous, 96% of the Moon is Illuminated
Feb 27
Waning Gibbous
Mar 4
Last Quarter
Mar 11
New
Mar 19
First Quarter
Mar 27
Full

Hourly Weather History & Observations

Time (MST) Temp. Windchill Dew Point Humidity Pressure Visibility Wind Dir Wind Speed Gust Speed Precip Events Conditions
12:53 AM 28.9 °F 20.4 °F 21.9 °F 75% 30.16 in 10.0 mi NW 9.2 mph - N/A   Overcast
1:53 AM 28.9 °F 19.8 °F 23.0 °F 78% 30.17 in 10.0 mi NW 10.4 mph - N/A   Overcast
2:53 AM 28.9 °F 19.2 °F 21.9 °F 75% 30.17 in 10.0 mi NW 11.5 mph - N/A   Overcast
3:53 AM 28.0 °F 16.5 °F 21.9 °F 78% 30.19 in 10.0 mi NW 15.0 mph - N/A   Overcast
4:53 AM 27.0 °F 13.9 °F 19.9 °F 75% 30.22 in 10.0 mi NW 18.4 mph - N/A   Overcast
5:12 AM 26.6 °F 14.7 °F 21.2 °F 80% 30.15 in 10.0 mi NW 15.0 mph 23.0 mph N/A   Overcast
5:53 AM 26.1 °F 12.7 °F 19.9 °F 78% 30.25 in 10.0 mi NW 18.4 mph 26.5 mph N/A   Overcast
6:53 AM 27.0 °F 13.5 °F 19.9 °F 75% 30.24 in 10.0 mi NW 19.6 mph - N/A   Overcast
7:39 AM 26.6 °F 14.7 °F 21.2 °F 80% 30.16 in 10.0 mi NW 15.0 mph - N/A   Overcast
7:53 AM 28.0 °F 16.1 °F 21.0 °F 75% 30.26 in 10.0 mi NW 16.1 mph - N/A   Overcast
8:05 AM 26.6 °F 14.7 °F 21.2 °F 80% 30.17 in 10.0 mi NW 15.0 mph - N/A   Overcast
8:53 AM 28.0 °F 15.7 °F 21.0 °F 75% 30.27 in 10.0 mi NW 17.3 mph - N/A   Overcast
9:36 AM 26.6 °F 13.4 °F 21.2 °F 80% 30.18 in 9.0 mi NNW 18.4 mph - N/A   Overcast
9:53 AM 27.0 °F 13.9 °F 21.9 °F 81% 30.29 in 10.0 mi NNW 18.4 mph - N/A   Overcast
11:42 AM 28.4 °F 17.0 °F 21.2 °F 74% 30.20 in 9.0 mi NNW 15.0 mph - N/A   Overcast
11:53 AM 28.0 °F 15.7 °F 21.0 °F 75% 30.30 in 10.0 mi North 17.3 mph 20.7 mph N/A   Overcast
12:53 PM 27.0 °F 16.7 °F 21.0 °F 78% 30.30 in 9.0 mi NNW 11.5 mph - N/A   Overcast
1:14 PM 26.6 °F 15.7 °F 21.2 °F 80% 30.20 in 8.0 mi North 12.7 mph - N/A   Overcast
1:53 PM 27.0 °F 17.3 °F 21.9 °F 81% 30.30 in 9.0 mi NNW 10.4 mph - N/A   Overcast
2:53 PM 27.0 °F 15.6 °F 21.9 °F 81% 30.31 in 8.0 mi NNW 13.8 mph - N/A   Overcast
3:41 PM 26.6 °F 16.2 °F 21.2 °F 80% 30.21 in 9.0 mi NNW 11.5 mph - N/A   Overcast
3:53 PM 27.0 °F 17.3 °F 21.0 °F 78% 30.31 in 9.0 mi NNW 10.4 mph - N/A   Overcast
4:53 PM 27.0 °F 18.7 °F 21.0 °F 78% 30.32 in 9.0 mi North 8.1 mph - N/A   Overcast
5:53 PM 27.0 °F 19.5 °F 21.0 °F 78% 30.32 in 10.0 mi NNW 6.9 mph - N/A   Overcast
6:53 PM 27.0 °F 20.5 °F 21.0 °F 78% 30.32 in 9.0 mi North 5.8 mph - N/A   Overcast
7:53 PM 27.0 °F 21.6 °F 21.0 °F 78% 30.32 in 9.0 mi North 4.6 mph - N/A   Overcast
8:53 PM 27.0 °F 23.0 °F 21.0 °F 78% 30.32 in 8.0 mi NNE 3.5 mph - N/A   Overcast
9:16 PM 26.6 °F 21.2 °F 21.2 °F 80% 30.22 in 9.0 mi NE 4.6 mph - N/A   Overcast
9:36 PM 26.6 °F 20.0 °F 21.2 °F 80% 30.22 in 9.0 mi NE 5.8 mph - N/A   Overcast
9:53 PM 26.1 °F 18.4 °F 21.0 °F 81% 30.31 in 10.0 mi NE 6.9 mph - N/A   Overcast
11:53 PM 23.0 °F 18.4 °F 19.0 °F 85% 30.32 in 10.0 mi North 3.5 mph - N/A   Overcast